This is the latest recevied weather packets stored in our database for station/object K7CTM. If no packets are shown the sender has not sent any weather packets the latest 10 day(s).
| Time | Temp. | Humidity | Pressure | Rain* | Wind** | Luminosity | Snow |
|---|---|---|---|---|---|---|---|
| 1777601142 | 12.22° C | 33% | 1029.8 hPa | 0 mm | - | 14 W/m² | - |
| 1777600840 | 12.78° C | 32% | 1029.7 hPa | 0 mm | - | 15 W/m² | - |
| 1777600535 | 12.78° C | 32% | 1029.9 hPa | 0 mm | - | 19 W/m² | - |
| 1777600232 | 12.78° C | 33% | 1029.8 hPa | 0 mm | - | 23 W/m² | - |
| 1777599927 | 12.78° C | 33% | 1029.8 hPa | 0 mm | - | 27 W/m² | - |
| 1777599624 | 13.33° C | 33% | 1029.7 hPa | 0 mm | - | 30 W/m² | - |
| 1777599321 | 13.89° C | 32% | 1029.7 hPa | 0 mm | - | 33 W/m² | - |
| 1777599017 | 13.89° C | 32% | 1029.7 hPa | 0 mm | - | 36 W/m² | - |
| 1777598714 | 13.89° C | 31% | 1029.8 hPa | 0 mm | - | 40 W/m² | - |
| 1777598410 | 13.89° C | 32% | 1029.7 hPa | 0 mm | - | 37 W/m² | - |
| 1777598109 | 15° C | 30% | 1029.8 hPa | 0 mm | - | 45 W/m² | - |
| 1777597809 | 15° C | 31% | 1029.7 hPa | 0 mm | - | 65 W/m² | - |
| 1777597503 | 15° C | 29% | 1029.7 hPa | 0 mm | - | 74 W/m² | - |
| 1777597199 | 15° C | 29% | 1029.7 hPa | 0 mm | - | 84 W/m² | - |
| 1777596895 | 15° C | 28% | 1029.7 hPa | 0 mm | - | 95 W/m² | - |
| 1777596592 | 15° C | 30% | 1029.6 hPa | 0 mm | - | 106 W/m² | - |
| 1777596288 | 15.56° C | 28% | 1029.6 hPa | 0 mm | - | 121 W/m² | - |
| 1777595986 | 15.56° C | 30% | 1029.8 hPa | 0 mm | - | 132 W/m² | - |
| 1777595680 | 16.11° C | 31% | 1029.7 hPa | 0 mm | - | 145 W/m² | - |
| 1777595376 | 16.11° C | 28% | 1029.7 hPa | 0 mm | - | 158 W/m² | - |
| 1777595073 | 16.11° C | 31% | 1029.9 hPa | 0 mm | - | 171 W/m² | - |
| 1777594770 | 16.11° C | 31% | 1029.8 hPa | 0 mm | - | 188 W/m² | - |
| 1777594466 | 15.56° C | 30% | 1029.8 hPa | 0 mm | - | 201 W/m² | - |
| 1777594161 | 14.44° C | 29% | 1029.8 hPa | 0 mm | - | 220 W/m² | - |
| 1777593858 | 15° C | 30% | 1029.8 hPa | 0 mm | - | 72 W/m² | - |
* Rain latest hour (hover to see other rain measurements)
** Current wind speed in m/s (hover to see current wind gust speed)